When you browse on this site, cookies collect data to enhance your experience and personalize the content and advertising you see.
Visit our Privacy Policy to learn more. By continuing to use the site, you agree to this use of cookies and data.
  • Em Portugal
  • Lista de países
  • Para 7 dias
  • Temperatura da água
  • Mapas de satélite
  • Mapa do tempo
  • Widgets de tempo
  • user-avatar
    Iniciar Sessão

    Previsão horária em Tiba

    Hoje, 19 Janeiro, Sábado

    Tempo Temperatura Precipitação Vento Pressão Humidade
    00:00 +5°C° 0 mm 5 m/s 764 mmHg 31%
    01:00 +5°C° 0 mm 5 m/s 764 mmHg 32%
    02:00 +5°C° 0 mm 5 m/s 764 mmHg 32%
    03:00 +4°C° 0 mm 6 m/s 764 mmHg 35%
    04:00 +5°C° 0 mm 5 m/s 764 mmHg 36%
    05:00 +5°C° 0 mm 5 m/s 764 mmHg 36%
    06:00 +5°C° 0 mm 5 m/s 765 mmHg 36%
    07:00 +5°C° 0 mm 5 m/s 765 mmHg 35%
    08:00 +6°C° 0 mm 5 m/s 765 mmHg 34%
    09:00 +7°C° 0 mm 6 m/s 765 mmHg 35%
    10:00 +8°C° 0 mm 6 m/s 765 mmHg 31%
    11:00 +8°C° 0 mm 5 m/s 765 mmHg 28%
    12:00 +10°C° 0 mm 4 m/s 764 mmHg 24%
    13:00 +10°C° 0 mm 3 m/s 764 mmHg 23%
    14:00 +11°C° 0 mm 3 m/s 764 mmHg 23%
    15:00 +12°C° 0 mm 2 m/s 763 mmHg 25%
    16:00 +12°C° 0 mm 2 m/s 763 mmHg 29%
    17:00 +11°C° 0 mm 1 m/s 764 mmHg 33%
    18:00 +10°C° 0 mm 1 m/s 764 mmHg 37%
    19:00 +10°C° 0 mm 1 m/s 764 mmHg 39%
    20:00 +10°C° 0 mm 1 m/s 764 mmHg 42%
    21:00 +8°C° 0 mm 0 m/s 763 mmHg 43%
    22:00 +9°C° 0 mm 1 m/s 763 mmHg 43%
    23:00 +8°C° 0 mm 1 m/s 763 mmHg 42%

    Amanhã, 20 Janeiro, Domingo

    Tempo Temperatura Precipitação Vento Pressão Humidade
    00:00 +7°C° 0 mm 2 m/s 763 mmHg 42%
    01:00 +7°C° 0 mm 2 m/s 762 mmHg 42%
    02:00 +6°C° 0 mm 2 m/s 762 mmHg 41%
    03:00 +6°C° 0 mm 2 m/s 761 mmHg 41%
    04:00 +7°C° 0 mm 1 m/s 761 mmHg 41%
    05:00 +6°C° 0 mm 1 m/s 760 mmHg 41%
    06:00 +6°C° 0 mm 1 m/s 759 mmHg 42%
    07:00 +7°C° 0 mm 1 m/s 758 mmHg 43%
    08:00 +7°C° 0 mm 1 m/s 758 mmHg 44%
    09:00 +8°C° 0 mm 1 m/s 757 mmHg 45%
    10:00 +9°C° 0 mm 3 m/s 756 mmHg 47%
    11:00 +11°C° 0 mm 4 m/s 754 mmHg 49%
    12:00 +13°C° 0 mm 6 m/s 753 mmHg 51%
    13:00 +13°C° 0 mm 6 m/s 752 mmHg 50%
    14:00 +14°C° 0 mm 6 m/s 751 mmHg 48%
    15:00 +14°C° 0 mm 6 m/s 750 mmHg 47%
    16:00 +13°C° 0 mm 5 m/s 751 mmHg 45%
    17:00 +12°C° 0 mm 5 m/s 751 mmHg 42%
    18:00 +9°C° 0 mm 5 m/s 751 mmHg 40%
    19:00 +10°C° 0 mm 4 m/s 752 mmHg 42%
    20:00 +10°C° 0 mm 3 m/s 752 mmHg 44%
    21:00 +9°C° 0 mm 2 m/s 753 mmHg 47%
    22:00 +8°C° 0 mm 4 m/s 753 mmHg 45%
    23:00 +7°C° 0 mm 5 m/s 753 mmHg 44%

    Depois de amanhã, 21 Janeiro, Segunda-feira

    Tempo Temperatura Precipitação Vento Pressão Humidade
    00:00 +6°C° 0 mm 7 m/s 754 mmHg 43%
    01:00 +5°C° 0 mm 7 m/s 754 mmHg 40%
    02:00 +5°C° 0 mm 8 m/s 755 mmHg 37%
    03:00 +4°C° 0 mm 8 m/s 755 mmHg 34%
    04:00 +4°C° 0 mm 8 m/s 755 mmHg 33%
    05:00 +2°C° 0 mm 8 m/s 756 mmHg 32%
    06:00 +2°C° 0 mm 8 m/s 756 mmHg 31%
    07:00 +3°C° 0 mm 7 m/s 757 mmHg 30%
    08:00 +3°C° 0 mm 7 m/s 757 mmHg 29%
    09:00 +3°C° 0 mm 7 m/s 758 mmHg 28%
    10:00 +4°C° 0 mm 6 m/s 757 mmHg 25%
    11:00 +6°C° 0 mm 5 m/s 757 mmHg 23%
    12:00 +7°C° 0 mm 4 m/s 757 mmHg 20%
    13:00 +8°C° 0 mm 3 m/s 756 mmHg 19%
    14:00 +8°C° 0 mm 2 m/s 756 mmHg 19%
    15:00 +10°C° 0 mm 1 m/s 756 mmHg 18%
    16:00 +8°C° 0 mm 2 m/s 756 mmHg 21%
    17:00 +8°C° 0 mm 2 m/s 756 mmHg 25%
    18:00 +7°C° 0 mm 2 m/s 756 mmHg 28%
    19:00 +7°C° 0 mm 3 m/s 756 mmHg 33%
    20:00 +7°C° 0 mm 3 m/s 756 mmHg 37%
    21:00 +6°C° 0 mm 4 m/s 756 mmHg 42%
    22:00 +6°C° 0 mm 4 m/s 755 mmHg 41%
    23:00 +6°C° 0 mm 5 m/s 755 mmHg 41%

    22 Janeiro, Terça-feira

    Tempo Temperatura Precipitação Vento Pressão Humidade
    00:00 +6°C° 0 mm 5 m/s 755 mmHg 41%
    01:00 +6°C° 0 mm 5 m/s 754 mmHg 42%
    02:00 +5°C° 0 mm 6 m/s 754 mmHg 44%
    03:00 +5°C° 0 mm 6 m/s 754 mmHg 45%
    04:00 +5°C° 0 mm 6 m/s 754 mmHg 45%
    05:00 +6°C° 0 mm 7 m/s 754 mmHg 45%
    06:00 +6°C° 0 mm 7 m/s 754 mmHg 45%
    07:00 +6°C° 0 mm 7 m/s 754 mmHg 42%
    08:00 +8°C° 0 mm 6 m/s 755 mmHg 39%
    09:00 +8°C° 0 mm 6 m/s 755 mmHg 36%
    10:00 +8°C° 0 mm 6 m/s 755 mmHg 38%
    11:00 +8°C° 0 mm 6 m/s 755 mmHg 40%
    12:00 +8°C° 0 mm 5 m/s 756 mmHg 43%
    13:00 +8°C° 0 mm 5 m/s 756 mmHg 37%
    14:00 +8°C° 0 mm 4 m/s 756 mmHg 31%
    15:00 +10°C° 0 mm 3 m/s 756 mmHg 26%
    16:00 +9°C° 0 mm 3 m/s 757 mmHg 26%
    17:00 +9°C° 0 mm 2 m/s 757 mmHg 26%
    18:00 +8°C° 0 mm 2 m/s 758 mmHg 26%
    19:00 +8°C° 0 mm 2 m/s 758 mmHg 27%
    20:00 +8°C° 0 mm 2 m/s 759 mmHg 28%
    21:00 +7°C° 0 mm 2 m/s 759 mmHg 29%
    22:00 +7°C° 0 mm 2 m/s 759 mmHg 31%
    23:00 +7°C° 0 mm 2 m/s 759 mmHg 33%

    23 Janeiro, Quarta-feira

    Tempo Temperatura Precipitação Vento Pressão Humidade
    00:00 +7°C° 0 mm 2 m/s 758 mmHg 35%
    01:00 +6°C° 0 mm 2 m/s 758 mmHg 37%
    02:00 +6°C° 0 mm 2 m/s 758 mmHg 39%
    03:00 +6°C° 0 mm 2 m/s 758 mmHg 41%
    04:00 +6°C° 0 mm 1 m/s 757 mmHg 42%
    05:00 +6°C° 0 mm 1 m/s 757 mmHg 42%
    06:00 +6°C° 0 mm 1 m/s 757 mmHg 43%
    07:00 +6°C° 0 mm 2 m/s 756 mmHg 44%
    08:00 +7°C° 0 mm 2 m/s 756 mmHg 44%
    09:00 +8°C° 0 mm 2 m/s 756 mmHg 44%
    10:00 +8°C° 0 mm 4 m/s 755 mmHg 41%
    11:00 +9°C° 0 mm 5 m/s 754 mmHg 38%
    12:00 +11°C° 0 mm 6 m/s 753 mmHg 34%
    13:00 +11°C° 0 mm 7 m/s 752 mmHg 32%
    14:00 +12°C° 0 mm 7 m/s 751 mmHg 29%
    15:00 +12°C° 0 mm 8 m/s 750 mmHg 27%
    16:00 +12°C° 0 mm 8 m/s 750 mmHg 28%
    17:00 +11°C° 0 mm 9 m/s 751 mmHg 30%
    18:00 +10°C° 0 mm 9 m/s 751 mmHg 31%
    19:00 +8°C° 0.1 mm 10 m/s 752 mmHg 31%
    20:00 +6°C° 0.1 mm 11 m/s 753 mmHg 30%
    21:00 +3°C° 0.1 mm 12 m/s 754 mmHg 30%
    22:00 +3°C° 0 mm 11 m/s 755 mmHg 29%
    23:00 +2°C° 0 mm 11 m/s 756 mmHg 29%

    24 Janeiro, Quinta-feira

    Tempo Temperatura Precipitação Vento Pressão Humidade
    00:00 +1°C° 0 mm 10 m/s 756 mmHg 28%
    01:00 +1°C° 0 mm 10 m/s 757 mmHg 30%
    02:00 +1°C° 0 mm 10 m/s 757 mmHg 31%
    03:00 0°C° 0 mm 10 m/s 757 mmHg 32%
    04:00 0°C° 0 mm 10 m/s 758 mmHg 32%
    05:00 0°C° 0 mm 10 m/s 759 mmHg 32%
    06:00 0°C° 0 mm 10 m/s 759 mmHg 31%
    07:00 +1°C° 0 mm 10 m/s 760 mmHg 30%
    08:00 +1°C° 0 mm 9 m/s 760 mmHg 29%
    09:00 +2°C° 0 mm 9 m/s 761 mmHg 28%
    10:00 +2°C° 0 mm 8 m/s 761 mmHg 27%
    11:00 +4°C° 0 mm 8 m/s 761 mmHg 25%
    12:00 +5°C° 0 mm 8 m/s 761 mmHg 24%
    13:00 +5°C° 0 mm 8 m/s 761 mmHg 24%
    14:00 +5°C° 0 mm 8 m/s 761 mmHg 24%
    15:00 +6°C° 0 mm 7 m/s 761 mmHg 24%
    16:00 +5°C° 0 mm 7 m/s 762 mmHg 25%
    17:00 +4°C° 0 mm 6 m/s 763 mmHg 26%
    18:00 +4°C° 0 mm 6 m/s 763 mmHg 27%
    19:00 +5°C° 0 mm 5 m/s 764 mmHg 28%
    20:00 +4°C° 0 mm 4 m/s 764 mmHg 29%
    21:00 +4°C° 0 mm 3 m/s 765 mmHg 30%
    22:00 +5°C° 0 mm 2 m/s 765 mmHg 32%
    23:00 +4°C° 0 mm 2 m/s 764 mmHg 34%
    Mostrar mais